Powrót do katalogu

OPS 5960

AktywnyNawigacjaMEO
NORAD 4630·PAYLOAD·🇺🇸 United States

Wystrzelony Nov 6, 1970 z Cape Canaveral Space Force Station

Loading…

Następne Przeloty (najbliższe 24 godziny)

TLE

ŚwieżeSource: Space-Track

Epoka: Sep 14, 2026, 00:00 UTC

1 04630U 70093A   26257.00062559 -.00000162  00000-0  00000-0 0  9991
2 04630  15.2567  34.5448 1359566 281.4234  47.9784  1.20217156244901

Śledź OPS 5960 w czasie rzeczywistym z AllMySat

Download on the App Store